GW5900 Weather Reports


Display with metric or nautical units.
time (UTC)temp
F
wind
direction
speed
MPH
gust
MPH
rain 1hr
in
rain 24hr
in
rain mn
in
humidity
%
barometer
mb
20260510105022 61 142 0.0 0.0 0.00 0.00 0.00 99 1013.5
20260510104442 61 142 0.0 0.0 0.00 0.00 0.00 99 1013.5
20260510103927 61 142 0.0 0.0 0.00 0.00 0.00 99 1013.6
20260510103410 61 142 0.0 0.0 0.00 0.00 0.00 99 1013.5
20260510102833 61 142 0.0 0.0 0.00 0.00 0.00 100 1013.9
20260510102522 61 142 0.0 0.0 0.00 0.00 0.00 100 1013.9
20260510101727 60 142 0.0 0.0 0.00 0.00 0.00 100 1013.9
20260510101155 60 139 0.0 0.0 0.00 0.00 0.00 100 1013.3
20260510100624 60 142 0.0 0.0 0.00 0.00 0.00 100 1013.3
20260510100328 60 142 0.0 0.0 0.00 0.00 0.00 100 1013.3
20260510095544 60 142 0.0 0.0 0.00 0.00 0.00 99 1013.2
20260510095020 60 142 0.0 0.0 0.00 0.00 0.00 99 1013.2
20260510094720 60 142 0.0 0.0 0.00 0.00 0.00 99 1013.2
20260510093927 60 142 0.0 0.0 0.00 0.00 0.00 99 1013.0
20260510093616 60 142 0.0 0.0 0.00 0.00 0.00 100 1013.0
20260510092827 60 142 0.0 0.0 0.00 0.00 0.00 100 1012.8
20260510092258 60 142 0.0 0.0 0.00 0.00 0.00 100 1012.8
20260510091728 60 142 0.0 0.0 0.00 0.00 0.00 99 1012.8
20260510091419 60 142 0.0 0.0 0.00 0.00 0.00 100 1012.8
20260510090627 60 142 0.0 0.0 0.00 0.00 0.00 100 1012.8
20260510090058 60 142 0.0 0.0 0.00 0.00 0.00 99 1012.8
20260510085527 60 142 0.0 0.0 0.00 0.00 0.00 99 1012.6
20260510085239 60 142 0.0 0.0 0.00 0.00 0.00 99 1012.6
20260510084708 60 142 0.0 0.0 0.00 0.00 0.00 99 1012.4
20260510083915 61 142 0.0 0.0 0.00 0.00 0.00 99 1012.5
20260510083346 61 142 0.0 0.0 0.00 0.00 0.00 99 1012.5
20260510082815 61 142 0.0 0.0 0.00 0.00 0.00 99 1012.4
20260510082245 61 142 0.0 0.0 0.00 0.00 0.00 99 1012.4
20260510081716 61 142 0.0 0.0 0.00 0.00 0.00 98 1012.4
20260510081201 61 142 0.0 0.0 0.00 0.00 0.00 98 1012.3
20260510080621 61 142 0.0 0.0 0.00 0.00 0.00 97 1012.3
20260510080105 61 142 0.0 0.0 0.00 0.00 0.00 97 1012.3
20260510075743 61 142 0.0 0.0 0.00 0.00 0.00 96 1012.1
20260510074945 62 142 0.0 0.0 0.00 0.00 0.00 96 1012.1
20260510074404 62 142 0.0 0.0 0.00 0.00 0.00 95 1012.1
20260510073853 62 142 0.0 0.0 0.00 0.00 0.00 95 1012.1
20260510073344 62 139 0.0 0.0 0.00 0.00 0.00 94 1012.1
20260510073106 62 142 0.0 0.0 0.00 0.00 0.00 93 1012.2
20260510072309 62 142 0.0 0.0 0.00 0.00 0.00 93 1012.2
20260510071727 62 142 0.0 0.0 0.00 0.00 0.00 94 1012.2
20260510071146 62 142 0.0 0.0 0.00 0.00 0.00 93 1012.0
20260510070621 62 142 0.0 0.0 0.00 0.00 0.00 93 1012.0
20260510070309 63 142 0.0 0.0 0.00 0.00 0.00 92 1012.0
20260510065457 63 142 0.0 0.0 0.00 0.00 0.00 92 1012.0
20260510064927 63 142 0.0 0.0 0.00 0.00 0.00 91 1012.0
20260510064344 63 142 0.0 0.0 0.00 0.00 0.00 89 1012.2
20260510063203 64 142 0.0 0.0 0.00 0.00 0.00 88 1012.2
20260510063144 64 142 0.0 0.0 0.00 0.00 0.00 88 1012.5
20260510062157 64 142 0.0 0.0 0.00 0.00 0.00 88 1012.5
20260510061632 63 142 0.0 0.0 0.00 0.00 0.00 88 1012.5
20260510061127 63 142 0.0 0.0 0.00 0.00 0.00 88 1012.3
20260510060604 64 139 0.0 0.0 0.00 0.00 0.00 88 1012.3
20260510060057 64 142 0.0 0.0 0.00 0.00 0.00 87 1012.3
20260510055507 64 142 0.0 0.0 0.00 0.00 0.00 87 1012.3
20260510055005 64 142 0.0 0.0 0.00 0.00 0.00 87 1012.3
20260510054457 64 142 0.0 0.0 0.00 0.00 0.00 85 1012.1
20260510054352 64 142 0.0 0.0 0.00 0.00 0.00 86 1012.1
20260510053317 64 142 0.0 0.0 0.00 0.00 0.00 86 1012.1
20260510052728 64 142 0.0 0.0 0.00 0.00 0.00 85 1011.9
20260510052157 64 142 0.0 0.0 0.00 0.00 0.00 86 1011.9
20260510051631 65 142 0.0 0.0 0.00 0.00 0.00 85 1011.9
20260510051127 65 142 0.0 0.0 0.00 0.00 0.00 85 1011.9
20260510050531 65 142 0.0 0.0 0.00 0.00 0.00 84 1011.9
20260510045947 65 142 0.0 0.0 0.00 0.00 0.00 84 1011.8
20260510045357 65 142 0.0 0.0 0.00 0.00 0.00 84 1011.8
20260510044827 65 142 0.0 0.0 0.00 0.00 0.00 80 1011.9
20260510044301 67 142 0.0 0.0 0.00 0.00 0.00 78 1012.0
20260510043751 67 142 0.0 0.0 0.00 0.00 0.00 77 1012.0
20260510043234 67 142 0.0 0.0 0.00 0.00 0.00 76 1012.0
20260510042727 66 142 0.0 0.0 0.00 0.00 0.00 81 1011.7
20260510042425 65 142 0.0 0.0 0.00 0.00 0.00 82 1011.7
20260510041825 65 142 0.0 0.0 0.00 0.00 0.00 83 1011.7
20260510041041 65 142 0.0 0.0 0.00 0.00 0.00 81 1011.8
20260510040536 66 142 0.0 0.0 0.00 0.00 0.00 81 1011.8
20260510040031 66 142 0.0 0.0 0.00 0.00 0.00 81 1011.8
20260510035513 66 142 0.0 0.0 0.00 0.00 0.00 81 1011.8
20260510035209 66 142 0.0 0.0 0.00 0.00 0.00 82 1011.8
20260510034707 66 142 0.0 0.0 0.00 0.00 0.00 82 1011.6
20260510033855 66 142 0.0 0.0 0.00 0.00 0.00 81 1011.6
20260510033307 66 142 0.0 0.0 0.00 0.00 0.00 81 1011.6
20260510033226 67 142 0.0 0.0 0.00 0.00 0.00 83 1011.5
20260510032239 67 142 0.0 0.0 0.00 0.00 0.00 82 1011.5
20260510031951 67 142 0.0 0.0 0.00 0.00 0.00 83 1011.5
20260510031213 67 142 0.0 0.0 0.00 0.00 0.00 83 1011.4
20260510030655 67 139 0.0 0.0 0.00 0.00 0.00 83 1011.4
20260510030443 67 142 0.0 0.0 0.00 0.00 0.00 83 1011.4
20260510025853 67 142 0.0 0.0 0.00 0.00 0.00 83 1011.2
20260510025127 67 142 0.0 0.0 0.00 0.00 0.00 82 1011.2
20260510024605 67 142 0.0 0.0 0.00 0.00 0.00 82 1011.2
20260510024022 68 142 0.0 0.0 0.00 0.00 0.00 81 1011.1
20260510023440 68 142 0.0 0.0 0.00 0.00 0.00 81 1011.1
20260510022902 68 142 0.0 0.0 0.00 0.00 0.00 81 1011.1
20260510022317 68 142 0.0 0.0 0.00 0.00 0.00 81 1011.1
20260510022004 68 142 0.0 0.0 0.00 0.00 0.00 80 1011.1
20260510021151 68 142 0.0 0.0 0.00 0.00 0.00 81 1010.7
20260510020837 69 142 0.0 0.0 0.00 0.00 0.00 79 1010.7
20260510020044 69 142 0.0 0.0 0.00 0.00 0.00 79 1010.7
20260510015525 69 142 0.0 0.0 0.00 0.00 0.00 79 1010.5
20260510014943 69 142 0.0 0.0 0.00 0.00 0.00 79 1010.5
20260510014426 70 142 0.0 0.0 0.00 0.00 0.00 78 1010.6
20260510013926 70 142 0.0 0.0 0.00 0.00 0.00 77 1010.5
20260510013351 70 142 0.0 0.0 0.00 0.00 0.00 76 1010.5
20260510012806 71 142 0.0 0.0 0.00 0.00 0.00 76 1010.3
20260510012225 71 142 0.0 0.0 0.00 0.00 0.00 74 1010.3
20260510011704 71 142 0.0 0.0 0.00 0.00 0.00 74 1010.3
20260510011126 72 142 0.0 0.0 0.00 0.00 0.00 72 1010.2
20260510010548 72 142 0.0 0.0 0.00 0.00 0.00 74 1010.2
20260510010013 73 142 0.0 0.0 0.00 0.00 0.00 69 1010.2
20260510005435 73 142 0.0 0.0 0.00 0.00 0.00 70 1010.0
20260510004858 74 142 0.0 0.0 0.00 0.00 0.00 68 1010.0
20260510004318 74 142 0.0 0.0 0.00 0.00 0.00 67 1009.9
20260510003744 75 142 0.0 0.0 0.00 0.00 0.00 66 1009.9
20260510003210 75 142 0.0 0.0 0.00 0.00 0.00 64 1009.9
20260510002655 76 142 0.0 0.0 0.00 0.00 0.00 62 1009.8
20260510002336 76 142 0.0 0.0 0.00 0.00 0.00 60 1009.8
20260510001806 78 142 0.0 1.0 0.00 0.00 0.00 56 1009.8
20260510001012 78 142 0.0 1.0 0.00 0.00 0.00 53 1009.8
20260510000440 78 140 0.0 3.0 0.00 0.00 0.00 53 1009.8
20260510000404 79 142 0.0 1.0 0.00 0.00 0.00 50 1009.7
20260509235349 79 140 0.0 3.0 0.00 0.00 0.00 47 1009.7
20260509234818 80 129 0.0 3.0 0.00 0.00 0.00 46 1009.8
20260509234248 80 129 1.0 3.0 0.00 0.00 0.00 45 1009.7
20260509233933 80 129 1.0 5.0 0.00 0.00 0.00 44 1009.7
20260509233146 81 163 1.0 5.0 0.00 0.00 0.00 45 1009.7
20260509232614 80 164 1.0 5.0 0.00 0.00 0.00 43 1009.6
20260509232045 81 162 1.0 5.0 0.00 0.00 0.00 41 1009.6
20260509231514 81 155 1.0 5.0 0.00 0.00 0.00 43 1009.6
20260509230945 81 142 1.0 5.0 0.00 0.00 0.00 45 1009.7
20260509230414 81 176 3.0 8.0 0.00 0.00 0.00 43 1009.6
20260509225844 81 176 3.0 10.0 0.00 0.00 0.00 44 1009.5
20260509225314 82 145 1.0 10.0 0.00 0.00 0.00 43 1009.5
20260509224744 82 157 3.0 8.0 0.00 0.00 0.00 42 1009.5
20260509224214 82 172 3.0 8.0 0.00 0.00 0.00 41 1009.3
20260509223645 82 132 1.0 8.0 0.00 0.00 0.00 42 1009.3
20260509223114 82 146 3.0 9.0 0.00 0.00 0.00 43 1009.3
20260509222542 82 153 3.0 9.0 0.00 0.00 0.00 41 1009.3
20260509222228 82 139 3.0 9.0 0.00 0.00 0.00 45 1009.3
20260509221436 82 201 4.0 9.0 0.00 0.00 0.00 44 1009.3
20260509220902 82 139 4.0 9.0 0.00 0.00 0.00 44 1009.3
20260509220333 82 170 5.0 9.0 0.00 0.00 0.00 44 1009.3
20260509215818 82 142 3.0 8.0 0.00 0.00 0.00 44 1009.1
20260509215533 82 145 1.0 8.0 0.00 0.00 0.00 44 1009.1
20260509215033 82 164 3.0 10.0 0.00 0.00 0.00 44 1009.1
20260509214240 82 148 3.0 10.0 0.00 0.00 0.00 45 1009.1
20260509213712 83 311 1.0 3.0 0.00 0.00 0.00 43 1009.1
20260509213210 83 20 1.0 3.0 0.00 0.00 0.00 44 1009.1
20260509212704 83 112 0.0 3.0 0.00 0.00 0.00 42 1009.4
20260509212128 83 112 1.0 8.0 0.00 0.00 0.00 44 1009.4
20260509211548 83 176 1.0 8.0 0.00 0.00 0.00 45 1009.4
20260509211030 82 162 0.0 8.0 0.00 0.00 0.00 47 1009.6
20260509210527 81 156 1.0 8.0 0.00 0.00 0.00 49 1009.6
20260509205952 82 172 3.0 8.0 0.00 0.00 0.00 49 1009.7
20260509205440 83 91 3.0 9.0 0.00 0.00 0.00 49 1009.7
20260509204936 83 160 1.0 8.0 0.00 0.00 0.00 48 1009.7
20260509204412 83 162 3.0 9.0 0.00 0.00 0.00 48 1009.8
20260509203908 82 180 4.0 9.0 0.00 0.00 0.00 46 1009.8
20260509203356 82 180 4.0 10.0 0.00 0.00 0.00 47 1009.8
20260509202854 83 145 4.0 10.0 0.00 0.00 0.00 46 1010.0
20260509202312 84 143 1.0 10.0 0.00 0.00 0.00 43 1010.0
20260509201748 84 174 1.0 5.0 0.00 0.00 0.00 47 1010.0
20260509201246 84 83 1.0 5.0 0.00 0.00 0.00 41 1010.1
20260509200714 83 77 1.0 10.0 0.00 0.00 0.00 40 1010.1
20260509200210 83 114 1.0 10.0 0.00 0.00 0.00 42 1010.1
20260509195701 84 70 1.0 5.0 0.00 0.00 0.00 38 1010.1
20260509195154 84 159 3.0 8.0 0.00 0.00 0.00 36 1010.1
20260509194650 83 148 3.0 9.0 0.00 0.00 0.00 40 1010.1
20260509194144 83 157 1.0 9.0 0.00 0.00 0.00 41 1010.2
20260509193640 84 15 1.0 5.0 0.00 0.00 0.00 41 1010.2
20260509193114 84 25 1.0 5.0 0.00 0.00 0.00 41 1010.2
20260509192838 84 33 1.0 5.0 0.00 0.00 0.00 39 1010.2
20260509192044 83 124 1.0 3.0 0.00 0.00 0.00 43 1010.2
20260509192020 83 352 1.0 3.0 0.00 0.00 0.00 44 1010.2
20260509191014 83 66 3.0 8.0 0.00 0.00 0.00 42 1010.2
20260509190444 83 23 3.0 9.0 0.00 0.00 0.00 42 1010.2
20260509185940 81 299 1.0 9.0 0.00 0.00 0.00 40 1010.3
20260509185414 82 276 1.0 5.0 0.00 0.00 0.00 41 1010.3
20260509184910 83 35 1.0 3.0 0.00 0.00 0.00 47 1010.3
20260509184345 82 36 3.0 9.0 0.00 0.00 0.00 46 1010.3
20260509183840 82 105 1.0 9.0 0.00 0.00 0.00 45 1010.3
20260509183535 82 335 1.0 5.0 0.00 0.00 0.00 47 1010.3
20260509182810 82 337 1.0 5.0 0.00 0.00 0.00 47 1010.6
20260509182510 82 81 0.0 3.0 0.00 0.00 0.00 45 1010.6
20260509182227 82 28 1.0 3.0 0.00 0.00 0.00 44 1010.6
20260509181150 82 61 1.0 3.0 0.00 0.00 0.00 44 1010.6
20260509180846 82 22 1.0 5.0 0.00 0.00 0.00 49 1010.6
20260509180121 82 13 1.0 5.0 0.00 0.00 0.00 49 1010.6
20260509175556 82 354 1.0 8.0 0.00 0.00 0.00 51 1010.7
20260509175050 81 335 1.0 8.0 0.00 0.00 0.00 50 1010.7
20260509174745 81 340 1.0 8.0 0.00 0.00 0.00 54 1010.7
20260509174022 81 347 1.0 8.0 0.00 0.00 0.00 55 1010.8
20260509173729 79 1 1.0 8.0 0.00 0.00 0.00 51 1010.7
20260509172958 80 159 1.0 8.0 0.00 0.00 0.00 50 1010.7
20260509172455 81 23 1.0 3.0 0.00 0.00 0.00 47 1010.7
20260509171954 81 1 1.0 8.0 0.00 0.00 0.00 55 1010.7
20260509171429 80 325 1.0 8.0 0.00 0.00 0.00 57 1010.7
20260509170929 79 359 0.0 3.0 0.00 0.00 0.00 59 1010.7
20260509170411 78 348 0.0 3.0 0.00 0.00 0.00 62 1010.7
20260509165903 78 11 0.0 3.0 0.00 0.00 0.00 59 1010.8
20260509165344 78 359 1.0 3.0 0.00 0.00 0.00 62 1010.8
20260509164844 78 1 1.0 5.0 0.00 0.00 0.00 61 1010.8
20260509164540 78 345 1.0 5.0 0.00 0.00 0.00 58 1010.7
20260509163821 79 25 1.0 5.0 0.00 0.00 0.00 60 1010.7
20260509163304 78 23 1.0 5.0 0.00 0.00 0.00 63 1010.7
20260509162804 77 349 1.0 5.0 0.00 0.00 0.00 63 1010.7
20260509162507 76 49 1.0 5.0 0.00 0.00 0.00 63 1010.7
20260509161743 76 23 1.0 5.0 0.00 0.00 0.00 61 1010.7
20260509161202 76 308 0.0 5.0 0.00 0.00 0.00 63 1010.7
20260509160647 76 348 0.0 3.0 0.00 0.00 0.00 62 1010.7
20260509160143 76 348 1.0 8.0 0.00 0.00 0.00 67 1010.7
20260509155600 76 332 3.0 8.0 0.00 0.00 0.00 64 1010.6
20260509155018 76 331 1.0 8.0 0.00 0.00 0.00 72 1010.6
20260509154439 75 330 3.0 8.0 0.00 0.00 0.00 64 1010.7
20260509153859 74 352 3.0 10.0 0.00 0.00 0.00 67 1010.7
20260509153352 74 359 1.0 8.0 0.00 0.00 0.00 70 1010.6
20260509153102 73 323 1.0 5.0 0.00 0.00 0.00 67 1010.5
20260509152305 73 347 1.0 3.0 0.00 0.00 0.00 72 1010.5
20260509152010 72 347 0.0 3.0 0.00 0.00 0.00 72 1010.5
20260509151248 72 194 0.0 3.0 0.00 0.00 0.00 70 1010.5
20260509150707 71 173 1.0 3.0 0.00 0.00 0.00 70 1010.5
20260509150130 70 320 1.0 3.0 0.00 0.00 0.00 74 1010.5
20260509145549 69 348 1.0 3.0 0.00 0.00 0.00 76 1010.5
20260509145010 69 313 0.0 3.0 0.00 0.00 0.00 74 1010.5
20260509144508 69 318 0.0 3.0 0.00 0.00 0.00 74 1010.5
20260509144002 69 318 0.0 3.0 0.00 0.00 0.00 74 1010.8
20260509143423 68 351 0.0 3.0 0.00 0.00 0.00 78 1010.8
20260509142904 68 352 1.0 5.0 0.00 0.00 0.00 80 1010.8
20260509142555 68 351 1.0 5.0 0.00 0.00 0.00 80 1010.8
20260509141803 67 282 1.0 5.0 0.00 0.00 0.00 79 1010.8
20260509141711 67 279 1.0 3.0 0.00 0.00 0.00 80 1010.9
20260509140651 67 277 0.0 3.0 0.00 0.00 0.00 81 1010.9
20260509140147 66 279 0.0 3.0 0.00 0.00 0.00 82 1010.9
20260509135647 66 266 0.0 3.0 0.00 0.00 0.00 84 1010.8
20260509135113 65 266 0.0 1.0 0.00 0.00 0.00 85 1010.8
20260509134759 65 266 0.0 5.0 0.00 0.00 0.00 84 1010.8
20260509134005 65 279 0.0 5.0 0.00 0.00 0.00 85 1010.9
20260509133433 65 249 0.0 1.0 0.00 0.00 0.00 85 1010.8
20260509133121 64 249 0.0 1.0 0.00 0.00 0.00 86 1010.7
20260509132330 64 176 0.0 1.0 0.00 0.00 0.00 87 1010.7
20260509131757 64 176 0.0 3.0 0.00 0.00 0.00 86 1010.7
20260509131443 63 176 0.0 3.0 0.00 0.00 0.00 88 1010.6
20260509130655 63 176 1.0 3.0 0.00 0.00 0.00 88 1010.6
20260509130125 62 128 1.0 5.0 0.00 0.00 0.00 89 1010.6
20260509125600 62 204 1.0 3.0 0.00 0.00 0.00 91 1010.5
20260509125030 62 148 1.0 3.0 0.00 0.00 0.00 92 1010.5
20260509124459 61 180 1.0 3.0 0.00 0.00 0.00 93 1010.5
20260509123930 60 217 0.0 3.0 0.00 0.00 0.00 94 1010.3
20260509123400 60 172 0.0 3.0 0.00 0.00 0.00 97 1010.3
20260509122829 58 208 0.0 0.0 0.00 0.00 0.00 99 1010.0
20260509122518 58 208 0.0 0.0 0.00 0.00 0.00 99 1010.0
20260509121730 58 208 0.0 0.0 0.00 0.00 0.00 100 1010.0
20260509121159 57 208 0.0 0.0 0.00 0.00 0.00 100 1009.8
20260509120629 57 208 0.0 0.0 0.00 0.00 0.00 100 1009.8
20260509120059 57 208 0.0 0.0 0.00 0.00 0.00 100 1009.8
20260509115814 56 208 0.0 0.0 0.00 0.00 0.00 100 1009.6
20260509115013 56 208 0.0 0.0 0.00 0.00 0.00 100 1009.6
20260509114441 56 208 0.0 0.0 0.00 0.00 0.00 100 1009.4
20260509113859 56 208 0.0 0.0 0.00 0.00 0.00 100 1009.4
20260509113547 56 208 0.0 0.0 0.00 0.00 0.00 100 1009.4
20260509112754 56 208 0.0 0.0 0.00 0.00 0.00 100 1009.4
20260509112432 56 208 0.0 0.0 0.00 0.00 0.00 100 1009.4
20260509111659 56 208 0.0 0.0 0.00 0.00 0.00 100 1009.4
20260509111113 56 208 0.0 0.0 0.00 0.00 0.00 100 1009.1
20260509110802 56 208 0.0 0.0 0.00 0.00 0.00 99 1009.1
20260509105949 56 208 0.0 0.0 0.00 0.00 0.00 99 1009.1
20260509105431 56 208 0.0 0.0 0.00 0.00 0.00 99 1008.9
20260509105325 56 208 0.0 0.0 0.00 0.00 0.00 99 1008.9